Tracy, MN

8:59 PM CDT on April 30, 2017 (GMT -0500)
Tracy

Weather History for KTKC - February, 2013

Change the Weather History Date:

Tuesday, February 5, 2013

  Actual Average (KMML) Record (KMML)
Temperature  
Mean Temperature 22 °F -  
Max Temperature 32 °F 25 °F 55 °F (1991)
Min Temperature 12 °F 3 °F -24 °F (1982)
Degree Days  
Heating Degree Days 42    
Moisture  
Dew Point 19 °F    
Average Humidity 83    
Maximum Humidity 93    
Minimum Humidity 75    
Precipitation  
Precipitation 0.01 in - - ()
Sea Level Pressure  
Sea Level Pressure 29.87 in    
Wind  
Wind Speed 14 mph (WNW)    
Max Wind Speed 29 mph    
Max Gust Speed 34 mph    
Visibility 9 miles    
Events Snow    
Averages and records for this station are not official NWS values.
T = Trace of Precipitation, MM = Missing Value Source: NWS Daily Summary

Daily Weather History Graph

Daily Weather History Graph

Search for Another Location

Airport or City:

Trip Planner

Search our weather history database for the weather conditions in past years. The results will help you decide how hot, cold, wet, or windy it might be!

Date:

Astronomy

Feb. 05, 2013 Rise Set
Actual Time 7:35 AM CST 5:38 PM CST
Civil Twilight 7:04 AM CST 6:08 PM CST
Nautical Twilight 6:30 AM CST 6:43 PM CST
Astronomical Twilight 5:56 AM CST 7:16 PM CST
Moon 3:22 AM CST (2/5) 12:52 PM CST (2/5)
Length of Visible Light 11h 03m
Length of Day
10h 02m
Waning Crescent, 26% of the Moon is Illuminated
Feb 5
Waning Crescent
Feb 10
New
Feb 17
First Quarter
Feb 25
Full
Mar 4
Last Quarter

Hourly Weather History & Observations

Time (CST) Temp. Windchill Dew Point Humidity Pressure Visibility Wind Dir Wind Speed Gust Speed Precip Events Conditions
12:17 AM 23.7 °F 6.7 °F 18.9 °F 82% 29.67 in 10.0 mi SW 28.8 mph 34.5 mph N/A   Clear
12:37 AM 23.7 °F 6.7 °F 19.0 °F 82% 29.65 in 10.0 mi SW 28.8 mph 34.5 mph N/A   Scattered Clouds
12:58 AM 23.7 °F 7.5 °F 19.0 °F 82% 29.65 in 10.0 mi SW 25.3 mph 33.4 mph N/A   Clear
1:18 AM 23.9 °F 9.1 °F 19.2 °F 82% 29.66 in 10.0 mi SW 20.7 mph 31.1 mph N/A   Scattered Clouds
1:38 AM 23.9 °F 8.4 °F 19.4 °F 83% 29.66 in 10.0 mi SW 23.0 mph 27.6 mph N/A   Clear
1:57 AM 23.9 °F 9.1 °F 19.4 °F 83% 29.66 in 10.0 mi SW 20.7 mph 27.6 mph N/A   Clear
2:17 AM 24.8 °F 11.9 °F 20.3 °F 83% 29.66 in 10.0 mi WSW 16.1 mph 26.5 mph N/A   Clear
2:38 AM 26.1 °F 13.1 °F 21.2 °F 82% 29.66 in 10.0 mi SW 17.3 mph 24.2 mph N/A   Scattered Clouds
2:57 AM 27.5 °F 15.0 °F 22.1 °F 80% 29.66 in 10.0 mi WSW 17.3 mph 21.9 mph N/A   Mostly Cloudy
3:18 AM 27.5 °F 18.0 °F 22.1 °F 80% 29.66 in 10.0 mi West 10.4 mph 21.9 mph N/A   Overcast
3:38 AM 28.8 °F 17.9 °F 22.6 °F 78% 29.65 in 10.0 mi WSW 13.8 mph - N/A   Overcast
3:58 AM 28.2 °F 17.2 °F 22.8 °F 80% 29.65 in 10.0 mi WSW 13.8 mph 18.4 mph N/A   Overcast
4:18 AM 28.0 °F 18.1 °F 22.6 °F 80% 29.66 in 10.0 mi WSW 11.5 mph 17.3 mph N/A   Overcast
4:37 AM 28.2 °F 19.5 °F 22.8 °F 80% 29.67 in 10.0 mi West 9.2 mph 17.3 mph N/A   Overcast
4:58 AM 28.9 °F 20.4 °F 23.4 °F 80% 29.68 in 10.0 mi West 9.2 mph - N/A   Overcast
5:17 AM 29.7 °F 26.1 °F 23.9 °F 79% 29.68 in 7.0 mi West 3.5 mph - N/A Snow Light Snow
5:37 AM 29.8 °F - 26.8 °F 88% 29.69 in 3.0 mi Calm Calm - N/A Snow Light Snow
5:58 AM 29.7 °F 22.0 °F 25.7 °F 85% 29.70 in 10.0 mi WNW 8.1 mph - N/A   Overcast
6:18 AM 29.3 °F - 25.7 °F 86% 29.69 in 10.0 mi Calm Calm - N/A   Overcast
6:38 AM 29.5 °F 23.4 °F 26.2 °F 88% 29.71 in 10.0 mi WNW 5.8 mph - N/A   Overcast
6:58 AM 30.0 °F 23.2 °F 26.6 °F 87% 29.72 in 10.0 mi West 6.9 mph - N/A   Overcast
7:17 AM 30.2 °F - 26.6 °F 86% 29.72 in 10.0 mi Calm Calm - N/A   Overcast
7:37 AM 30.7 °F 23.3 °F 26.8 °F 85% 29.74 in 10.0 mi WNW 8.1 mph - N/A   Overcast
7:58 AM 31.1 °F 23.1 °F 27.5 °F 87% 29.75 in 10.0 mi NW 9.2 mph - N/A   Overcast
8:18 AM 31.6 °F 28.3 °F 27.9 °F 86% 29.77 in 10.0 mi NW 3.5 mph - N/A   Overcast
8:37 AM 32.0 °F 23.6 °F 28.0 °F 85% 29.77 in 10.0 mi WNW 10.4 mph - N/A   Overcast
8:57 AM 32.0 °F 22.5 °F 28.4 °F 87% 29.79 in 10.0 mi NW 12.7 mph - N/A   Overcast
9:18 AM 32.0 °F 22.1 °F 28.4 °F 87% 29.81 in 10.0 mi NW 13.8 mph - N/A   Overcast
9:38 AM 32.0 °F 23.6 °F 28.4 °F 87% 29.82 in 10.0 mi North 10.4 mph - N/A   Overcast
9:57 AM 31.1 °F 21.9 °F 28.8 °F 91% 29.83 in 7.0 mi North 11.5 mph - N/A   Overcast
10:18 AM 31.1 °F 23.1 °F 28.8 °F 91% 29.84 in 7.0 mi NNW 9.2 mph - N/A   Overcast
10:38 AM 31.1 °F 21.4 °F 28.9 °F 92% 29.86 in 7.0 mi NNW 12.7 mph - N/A   Overcast
10:57 AM 30.9 °F 20.7 °F 28.4 °F 90% 29.88 in 7.0 mi NNW 13.8 mph - 0.01 in   Overcast
11:18 AM 28.0 °F 16.1 °F 25.5 °F 90% 29.90 in 4.0 mi NNW 16.1 mph 23.0 mph N/A   Overcast
11:38 AM 26.1 °F 14.5 °F 24.1 °F 92% 29.91 in 3.0 mi NNW 13.8 mph 24.2 mph N/A   Overcast
11:57 AM 24.4 °F 11.5 °F 22.1 °F 91% 29.92 in 4.0 mi NNW 16.1 mph 20.7 mph N/A   Overcast
12:18 PM 23.9 °F 10.8 °F 22.1 °F 93% 29.92 in 4.0 mi NNW 16.1 mph 21.9 mph N/A   Overcast
12:38 PM 23.4 °F 9.6 °F 21.2 °F 91% 29.94 in 3.0 mi NNW 17.3 mph 21.9 mph N/A   Overcast
12:58 PM 21.6 °F 7.8 °F 19.4 °F 91% 29.94 in 2.5 mi NNW 16.1 mph - N/A   Overcast
1:17 PM 21.2 °F 8.3 °F 19.4 °F 93% 29.95 in 2.0 mi NNW 13.8 mph - N/A   Overcast
1:38 PM 21.2 °F 7.8 °F 19.4 °F 93% 29.96 in 5.0 mi NNW 15.0 mph 21.9 mph N/A   Overcast
1:58 PM 21.2 °F 8.3 °F 18.0 °F 87% 29.97 in 7.0 mi NNW 13.8 mph 20.7 mph N/A   Overcast
2:17 PM 21.2 °F 7.8 °F 16.5 °F 82% 29.97 in 10.0 mi NNW 15.0 mph 20.7 mph N/A   Overcast
2:38 PM 21.0 °F 9.3 °F 16.7 °F 83% 29.97 in 10.0 mi NNW 11.5 mph - N/A   Overcast
2:58 PM 21.6 °F 9.9 °F 17.2 °F 83% 29.98 in 10.0 mi NNW 11.5 mph - N/A   Overcast
3:17 PM 21.0 °F 8.6 °F 15.1 °F 78% 29.99 in 10.0 mi NNW 12.7 mph - N/A   Overcast
3:37 PM 21.0 °F 9.3 °F 15.6 °F 80% 29.99 in 10.0 mi NNW 11.5 mph 17.3 mph N/A   Overcast
3:58 PM 20.7 °F 8.2 °F 14.7 °F 78% 30.00 in 10.0 mi NNW 12.7 mph - N/A   Overcast
4:17 PM 20.3 °F 9.0 °F 14.9 °F 80% 30.00 in 10.0 mi NNW 10.4 mph - N/A   Overcast
4:38 PM 20.1 °F 8.8 °F 14.9 °F 80% 30.00 in 10.0 mi NNW 10.4 mph - N/A   Overcast
4:58 PM 19.4 °F 7.2 °F 12.9 °F 76% 30.00 in 10.0 mi NNW 11.5 mph - N/A   Overcast
5:17 PM 19.2 °F 6.4 °F 12.6 °F 75% 30.01 in 10.0 mi NNW 12.7 mph - N/A   Overcast
5:38 PM 18.1 °F 7.1 °F 11.3 °F 75% 30.01 in 10.0 mi NNW 9.2 mph - N/A   Overcast
5:58 PM 18.0 °F - 12.0 °F 78% 30.02 in 10.0 mi Calm Calm - N/A   Overcast
6:18 PM 17.6 °F - 12.2 °F 79% 30.02 in 10.0 mi Calm Calm - N/A   Overcast
6:37 PM 17.8 °F - 12.0 °F 78% 30.02 in 10.0 mi Calm Calm - N/A   Overcast
6:58 PM 17.6 °F - 11.3 °F 76% 30.03 in 10.0 mi Calm Calm - N/A   Overcast
7:18 PM 17.4 °F - 11.3 °F 77% 30.02 in 10.0 mi Calm Calm - N/A   Overcast
7:38 PM 17.4 °F - 11.3 °F 77% 30.03 in 10.0 mi Calm Calm - N/A   Overcast
7:57 PM 17.4 °F 8.0 °F 11.3 °F 77% 30.04 in 10.0 mi NW 6.9 mph - N/A   Overcast
8:18 PM 17.2 °F - 11.7 °F 79% 30.04 in 10.0 mi Calm Calm - N/A   Overcast
8:38 PM 16.7 °F - 11.5 °F 80% 30.04 in 10.0 mi Calm Calm - N/A   Overcast
8:57 PM 16.7 °F - 11.1 °F 79% 30.04 in 10.0 mi Calm Calm - N/A   Overcast
9:18 PM 16.7 °F - 10.9 °F 78% 30.04 in 10.0 mi Calm Calm - N/A   Overcast
9:38 PM 16.7 °F - 11.7 °F 81% 30.05 in 10.0 mi Calm Calm - N/A   Overcast
9:57 PM 16.0 °F - 11.5 °F 82% 30.05 in 10.0 mi Calm Calm - N/A   Overcast
10:17 PM 15.4 °F - 10.2 °F 80% 30.05 in 10.0 mi Calm Calm - N/A   Scattered Clouds
10:38 PM 14.2 °F - 10.4 °F 85% 30.05 in 10.0 mi Calm Calm - N/A   Clear
10:58 PM 14.7 °F - 10.9 °F 85% 30.05 in 10.0 mi Calm Calm - N/A   Scattered Clouds
11:18 PM 14.4 °F - 10.4 °F 84% 30.05 in 10.0 mi Calm Calm - N/A   Clear
11:37 PM 13.3 °F - 10.0 °F 87% 30.04 in 10.0 mi Calm Calm - N/A   Clear
11:58 PM 12.7 °F - 9.7 °F 88% 30.04 in 10.0 mi Calm Calm - N/A   Clear